This demonstration page uses our WeatherBlox Daily Observations layout. Learn more.

Left ArrowRight Arrow

39.01783, -85.05884

Hourly Observations for April 8, 2018

Temp ( °F °C ) Dew Point ( °F °C ) Humidity (%) Winds ( mph kmh ) Pressure ( in mb ) Visibility ( mi km ) Precip ( " mm )
12:52 am 00:52 Clear 31 -0.6 22 -5.6 69 69 NNW 8 13 30.05 1018 10 16 N/A
1:52 am 01:52 Clear 31 -0.6 23 -5 72 72 NNW 8 13 30.05 1018 10 16 N/A
2:52 am 02:52 Clear 29 -1.7 23 -5 78 78 NNW 8 13 30.04 1017 10 16 N/A
3:52 am 03:52 Clear 29 -1.7 25 -3.9 85 85 N 8 13 30.04 1017 10 16 N/A
4:52 am 04:52 Clear 28 -2.2 22 -5.6 78 78 N 9 15 30.05 1018 10 16 N/A
5:52 am 05:52 Clear 27 -2.8 19 -7.2 72 72 N 8 13 30.06 1018 10 16 N/A
6:52 am 06:52 Clear 27 -2.8 17 -8.3 66 66 NNE 7 11 30.07 1018 10 16 N/A
7:52 am 07:52 Mostly Sunny 27 -2.8 19 -7.2 72 72 N 7 11 30.10 1019 10 16 N/A
8:52 am 08:52 Mostly Sunny 31 -0.6 18 -7.8 59 59 NNE 7 11 30.11 1020 10 16 N/A
9:52 am 09:52 Partly Cloudy 34 1.1 15 -9.4 46 46 N 9 15 30.11 1020 10 16 N/A
10:52 am 10:52 Partly Cloudy 37 2.8 16 -8.9 42 42 NE 8 13 30.12 1020 10 16 N/A
11:52 am 11:52 Partly Cloudy 38 3.3 15 -9.4 39 39 NNE 7 11 30.11 1020 10 16 N/A
12:52 pm 12:52 Partly Cloudy 39 3.9 14 -10 36 36 N N/A 30.10 1019 10 16 N/A
1:52 pm 13:52 Partly Cloudy 42 5.6 15 -9.4 33 33 N 7 11 30.08 1019 10 16 N/A
2:52 pm 14:52 Partly Cloudy 43 6.1 14 -10 31 31 N N/A 30.06 1018 10 16 N/A
3:52 pm 15:52 Cloudy 42 5.6 14 -10 32 32 SSW 3 6 30.05 1018 10 16 N/A
4:52 pm 16:52 Cloudy 43 6.1 14 -10 31 31 NNW 6 9 30.04 1017 10 16 N/A
5:52 pm 17:52 Cloudy 43 6.1 11 -11.7 27 27 N N/A 30.04 1017 10 16 N/A
6:52 pm 18:52 Cloudy 43 6.1 13 -10.6 29 29 N 5 7 30.04 1017 10 16 N/A
7:52 pm 19:52 Cloudy 42 5.6 13 -10.6 30 30 ENE 6 9 30.03 1017 10 16 N/A
8:52 pm 20:52 Cloudy 42 5.6 13 -10.6 30 30 NE 7 11 30.03 1017 10 16 N/A
9:52 pm 21:52 Cloudy 41 5 14 -10 33 33 NE 8 13 30.03 1017 10 16 N/A
10:52 pm 22:52 Cloudy 40 4.4 16 -8.9 38 38 E 9 15 30.02 1017 10 16 N/A
11:52 pm 23:52 Cloudy 40 4.4 18 -7.8 41 41 E 9 15 30.01 1016 10 16 N/A

Powered by AerisWeather